Regional Weather Roundup
Issued by NWS Portland, ME

Home | Current Version | Previous Version | Text Only | Print | Product List | Glossary On
Versions: 1 2 3 4 5 6 7 8 9 10 11 12 13 14 15 16 17 18 19 20 21 22 23 24 25 26 27 28 29 30 31 32 33 34 35 36 37 38 39 40 41 42 43 44 45 46 47 48 49 50
000
ASUS41 KGYX 282310
RWRGYX
WEATHER ROUNDUP FOR MAINE AND NEW HAMPSHIRE
NATIONAL WEATHER SERVICE GRAY ME
700 PM EDT SAT MAR 28 2015

MEZ002-005-006-010-012-015-018-020-021-024-026-027-029-290000-
MAINE

CITY           SKY/WX    TMP DP  RH WIND       PRES   REMARKS
PORTLAND       CLOUDY    39  21  48 N5        29.83R
SANFORD        CLOUDY    37  19  48 NW6       29.84R
BAR HARBOR     CLOUDY    36  16  44 N6        29.78R
WISCASSET      CLOUDY    38  14  37 CALM      29.82R
ROCKLAND       CLOUDY    36  19  51 NE3       29.79R
FRYEBURG       CLOUDY    33  16  49 N10       29.85R
LEWISTONAUBURN CLOUDY    37  18  44 NW8G16    29.81R
AUGUSTA        MOCLDY    36  15  42 N10       29.80R
WATERVILLE     CLOUDY    37  16  41 N9        29.78R
BANGOR         CLOUDY    35  16  45 N8        29.79R
GREENVILLE       N/A     29   9  43 NW14G21   29.75R WCI  18
MILLINOCKET    CLOUDY    35  12  38 N6        29.80R
HOULTON        CLOUDY    31  12  45 N8        29.78R
PRESQUE ISLE   PTCLDY    28   9  43 NW14      29.82R WCI  17
FRENCHVILLE    CLEAR     23  -1  35 N13G22    29.82R WCI  11
CARIBOU        PTCLDY    27   8  44 N15       29.80R WCI  15
$$

NHZ002-005-008-009-011-012-014-290000-
NEW HAMPSHIRE

CITY           SKY/WX    TMP DP  RH WIND       PRES   REMARKS
PORTSMOUTH     CLOUDY    34  31  88 SE7       29.84R
ROCHESTER      CLOUDY    35  28  75 NW9       29.84R
NASHUA         FLURRIES  33  31  93 W6        29.88R
MANCHESTER     CLOUDY    34  30  85 NW5       29.85R
CONCORD        CLOUDY    35  20  54 NW9       29.86R
LACONIA        CLOUDY    34  16  47 NW13      29.84R
PLYMOUTH       CLOUDY    32  20  61 NW13G18   29.88R
BERLIN         CLEAR     27  12  53 NW9       29.86R
WHITEFIELD     PTCLDY    28  12  51 N10       29.88R WCI  19
JAFFREY        CLOUDY    30  21  69 VRB7      29.85R
KEENE          MOCLDY    32  19  59 N9G17     29.90R
LEBANON        CLOUDY    31  14  49 NW15G24   29.91R
MT WASHINGTON  FOG        3   3 100 NW30        N/A  VSB 1/16WCI -21
$$

VTZ005-007-008-290000-
VERMONT

CITY           SKY/WX    TMP DP  RH WIND       PRES   REMARKS
ST JOHNSBURY     N/A     26   8  46 MISG      29.92R
MONTPELIER     CLEAR     22   5  48 NW12G21   29.97R WCI  10
BURLINGTON     PTCLDY    26   3  37 N14       30.02R WCI  14
$$

MAZ007-012-024-CTZ003-RIZ002-NYZ038-NYZ072-290000-
SOUTHERN NEW ENGLAND AND NY

CITY           SKY/WX    TMP DP  RH WIND       PRES   REMARKS
BOSTON         LGT SNOW  34  30  85 N5        29.87R FOG
WORCESTER      LGT SNOW  31  27  85 N9        29.84R FOG
NANTUCKET      LGT SNOW  35  31  85 N17       29.85R FOG
PROVIDENCE     LGT SNOW  34  30  85 N8        29.88R FOG
HARTFORD       CLOUDY    32  24  72 NW10      29.89R
ALBANY         LGT SNOW  28  22  78 NW7       30.00R VSB 1
NEW YORK CITY  MOCLDY    35  25  66 N12       29.95R
$$

ANZ081-ANZ082-ANZ150-NHZ014-MEZ023>029-290000-
COASTAL MARINE OBSERVATIONS

STATION/POSITION TIME  TEMP    WIND        PRES    WAVE
                       AIR SEA DIR/SP/G            HT/PER
                 (UTC) (F)     (DEG/KT/KT) (MB)    (FT/S)
MOUNT DESERT ROC 2300   35                 1007.7R
MATINICUS ROCK   2300   33     350/  8/  9 1008.8R
WELLS            2200   35     120/  5/  6 1008.8R
ISLE OF SHOALS   2300   33      20/  2/  2 1010.5R
JEFFREYS LEDGE   2221      40                N/A     9/ 7
CASHES LEDGE BUO 2250   34 38                N/A     8/11
$$

.............KEY..............
   WCI - WIND CHILL
   TC  - TEMPERATURE IN CELSIUS
   VSB - VISIBILITY IN MILES
   HX  - HEAT INDEX
   FAIR- INDICATES FEW OR NO CLOUDS BELOW 12,000 FT, WITH NO
         SIGNIFICANT WEATHER AND/OR OBSTRUCTIONS TO VISIBILITY.




USA.gov is the U.S. government's official web portal to all federal, state and local government web resources and services.